Wind_Speed
23 24 26 27 27 27 27 26 25 24 23 23 23 24 25 25 24 23 22 21 19 18 17 15 13 12 11 12 12 13 12 11 10 8 7 6 6 5 4 4 3 2 1 1 0 1 2 2 2 2 2 1 0 2 3 5 6 5 4 4 4 4 4 3 2 2 3 5 7 8 8 8 8 8 7 7 7 7 8 9 11 12 14 16 19
21 23 25 26 27 28 28 27 26 25 24 24 24 25 25 25 25 24 23 22 20 19 18 16 14 13 13 14 14 14 13 12 10 8 7 6 5 4 4 3 3 2 1 0 0 1 1 1 2 2 1 1 0 2 4 6 7 8 7 6 6 6 5 4 3 2 3 4 6 6 7 6 6 6 6 6 6 7 9 10 11 13 15 17 20
19 22 24 25 26 28 29 28 27 26 25 24 24 25 25 25 25 24 23 22 21 20 19 17 16 15 15 15 15 15 14 12 11 9 8 7 6 5 4 3 3 3 2 1 1 2 2 2 2 2 1 0 1 3 4 6 8 10 10 9 8 7 7 5 4 3 3 4 5 5 5 5 4 4 4 5 7 8 9 11 13 15 17 20 22
17 21 23 25 26 28 28 29 28 27 26 25 25 25 25 25 25 24 24 23 21 21 20 18 17 16 16 17 17 16 16 14 13 11 9 8 7 7 6 5 4 4 3 2 2 2 2 2 2 2 2 1 2 3 5 6 9 12 12 11 10 9 8 7 6 5 4 5 5 4 3 3 2 2 4 5 7 8 9 12 14 16 18 21 23
15 18 21 24 26 26 27 28 28 28 26 26 26 26 26 26 25 24 24 23 22 22 21 20 18 18 18 19 19 19 18 16 15 12 10 9 8 9 8 7 5 5 5 4 3 3 3 2 2 3 3 3 3 4 5 6 8 12 14 13 12 11 10 9 7 6 6 6 5 4 2 3 2 1 3 5 7 9 10 12 15 17 19 20 21
13 16 19 22 24 25 26 27 27 28 28 27 27 28 27 27 26 25 25 24 23 23 23 22 21 20 20 20 20 20 20 18 16 14 12 10 10 10 10 8 7 6 6 5 5 5 4 3 4 4 5 4 4 4 5 6 8 11 14 14 13 12 11 10 9 8 7 7 6 5 4 4 2 1 2 4 6 7 9 12 15 16 17 17 19
13 14 16 18 21 24 25 26 27 27 28 29 29 29 29 28 27 26 26 25 24 24 24 23 23 22 22 21 22 22 21 20 18 15 13 12 11 11 10 10 8 8 8 7 6 6 6 5 5 6 6 6 6 6 6 7 8 10 14 15 14 13 12 11 10 10 9 9 8 8 6 5 3 3 4 5 7 8 9 11 13 15 16 17 19
14 14 15 15 17 20 23 25 26 27 28 30 30 30 29 29 28 27 26 26 25 25 25 25 25 24 23 22 22 22 22 21 19 17 14 13 13 12 11 11 9 9 9 8 7 7 7 7 7 8 8 8 8 7 7 8 9 10 13 15 15 14 13 13 12 11 11 11 11 9 8 6 4 5 6 7 8 9 9 10 11 14 17 18 20
16 16 15 14 15 17 21 23 26 27 28 29 30 30 30 30 29 28 26 26 26 25 25 26 26 24 23 22 21 21 22 21 20 18 16 15 14 13 12 11 10 10 9 9 8 9 9 9 9 9 9 9 10 9 8 9 10 11 12 14 15 15 14 14 13 12 12 12 11 10 9 8 7 7 7 9 10 10 11 11 12 14 16 18 22
18 17 16 15 15 16 18 20 23 25 27 28 29 30 30 31 30 28 27 27 26 26 25 26 26 25 24 23 22 21 21 22 22 20 19 17 15 13 13 13 11 11 10 9 9 10 10 10 10 11 11 11 11 10 10 10 11 12 13 14 15 15 16 15 14 13 13 12 12 11 10 10 9 9 9 11 12 13 13 12 13 15 16 17 20
20 18 17 17 16 15 15 17 20 23 25 27 28 29 30 31 31 29 28 27 27 26 25 25 25 25 25 24 23 21 21 22 23 23 22 19 16 14 14 14 13 12 11 10 10 10 11 11 11 12 12 12 13 12 11 11 12 13 13 14 16 16 16 16 15 15 14 14 14 14 13 12 12 12 12 13 14 14 15 14 15 16 17 17 18
22 20 19 19 18 15 15 15 17 19 22 25 26 28 29 31 31 30 29 28 27 26 25 25 24 25 24 24 23 22 21 22 24 24 24 21 18 15 14 15 14 13 12 10 10 10 11 11 11 12 13 14 14 13 12 12 13 14 14 15 16 17 17 16 16 16 16 15 16 17 16 14 14 14 15 15 15 15 16 16 17 17 18 19 20
24 22 21 20 18 16 15 15 15 17 19 21 24 26 27 29 31 31 30 29 29 27 26 25 25 24 24 24 24 23 22 22 24 25 25 23 20 17 15 15 15 14 12 11 11 11 11 11 12 12 14 15 15 14 14 13 14 14 15 16 17 18 17 17 17 18 17 17 18 18 18 16 15 16 18 17 17 17 17 17 18 19 20 21 22
26 24 22 20 19 17 16 15 15 16 17 19 21 23 24 26 28 31 31 30 29 28 27 26 26 25 24 24 24 24 24 23 24 26 27 25 22 19 17 16 16 15 13 12 12 12 11 12 12 13 14 15 16 16 15 14 14 15 16 17 18 18 17 18 18 18 19 19 19 19 18 18 18 18 19 19 19 19 19 18 18 19 21 22 24
27 25 23 20 19 19 17 16 16 16 17 17 18 20 22 23 25 29 31 31 30 30 29 27 27 26 25 24 24 25 25 25 25 26 27 26 24 21 19 17 16 16 15 14 14 13 12 12 12 13 14 15 16 17 17 16 15 16 17 18 19 18 18 18 19 19 20 20 20 20 19 20 20 20 21 21 21 21 20 19 19 20 21 23 25
28 25 23 20 19 19 18 17 17 17 16 16 17 18 20 22 23 26 29 31 31 31 30 28 27 27 27 26 25 26 26 26 26 26 27 27 26 23 20 18 17 17 16 16 15 14 13 13 13 13 14 16 17 18 18 17 16 16 18 19 19 19 18 19 20 20 21 22 22 21 21 21 22 22 22 23 23 22 21 21 21 22 23 24 26
27 25 23 21 20 20 20 19 18 18 17 16 16 18 20 21 21 23 26 29 31 30 30 29 28 27 27 27 26 26 27 27 27 28 29 28 26 24 22 20 19 19 18 18 17 16 14 14 14 14 15 16 17 18 19 18 17 17 18 19 20 20 20 20 21 21 22 23 23 22 22 23 22 22 23 24 23 23 22 22 23 24 24 24 26
26 24 22 22 21 20 21 21 20 19 18 16 16 18 20 21 22 22 23 26 29 30 30 30 29 28 28 28 27 28 28 28 28 30 31 29 27 25 24 22 21 20 20 20 19 17 16 15 14 14 15 16 17 18 19 18 18 18 18 19 20 20 21 22 23 22 23 24 24 23 23 23 23 23 24 24 24 24 24 23 24 25 25 25 26
26 23 22 23 22 21 22 22 21 20 18 17 17 19 21 22 23 23 23 24 27 29 30 30 30 30 29 29 29 28 28 28 28 29 31 30 29 27 26 24 22 22 22 21 20 19 18 16 15 15 15 16 17 17 18 19 18 18 18 19 19 20 22 23 24 23 24 25 25 24 23 23 24 24 25 25 25 25 25 25 26 26 26 26 27
25 23 23 24 24 24 23 23 22 21 19 18 19 20 22 23 24 24 24 25 26 27 28 29 30 30 30 30 30 29 28 27 27 28 30 31 30 30 29 26 24 24 24 23 22 20 19 18 17 16 16 16 16 16 17 18 19 19 19 18 19 21 23 24 24 24 24 25 25 24 23 24 24 25 26 26 25 26 26 26 27 28 28 28 28
27 25 25 25 26 25 25 24 24 23 21 20 21 21 22 23 24 25 26 26 26 27 27 28 29 29 29 29 29 28 27 27 26 28 29 30 30 31 30 28 26 26 26 24 23 22 20 19 18 18 17 16 16 16 16 17 19 19 19 19 20 22 23 24 24 24 24 24 24 24 24 24 25 26 26 26 26 27 27 27 27 29 29 30 30
30 27 26 27 27 27 27 26 25 25 24 22 21 21 22 23 24 26 27 27 27 27 27 27 28 28 28 28 27 26 26 26 26 27 28 30 30 30 30 28 27 28 27 26 24 23 21 21 20 20 19 18 17 17 17 18 19 19 20 21 22 23 23 24 25 24 24 24 24 24 25 26 26 26 25 25 26 28 28 28 29 30 31 31 32
32 28 27 28 29 29 29 28 27 27 26 23 21 21 22 24 25 26 27 28 27 27 26 26 26 26 26 26 25 25 25 26 26 26 28 29 30 30 29 28 28 28 28 26 25 23 22 21 21 20 20 20 19 18 18 18 19 20 22 23 24 24 24 25 25 26 25 25 25 26 27 27 26 25 24 24 26 27 28 29 30 31 33 33 34
34 30 27 29 31 31 31 31 29 28 27 26 24 22 22 24 25 25 27 28 27 26 26 25 25 25 25 25 25 24 25 26 26 26 28 29 29 29 28 27 28 28 27 26 25 24 22 21 21 21 21 22 22 21 21 21 21 22 24 25 25 25 26 26 27 27 26 26 27 28 28 27 26 24 23 25 26 26 28 30 31 33 34 35 35
36 32 29 30 32 33 33 32 31 29 29 28 26 24 23 24 25 25 27 27 27 26 25 25 25 25 25 25 25 25 26 26 26 26 26 27 27 26 26 26 26 27 27 27 25 23 22 21 22 22 23 23 23 24 24 24 24 24 25 26 26 27 27 27 27 27 27 27 28 28 27 27 26 24 24 25 26 27 29 31 33 34 35 36 36
39 35 31 31 34 34 34 34 32 31 31 31 28 26 25 25 25 25 26 26 26 25 25 26 26 26 25 25 25 26 26 26 25 25 25 26 26 26 26 26 26 26 27 26 25 23 22 23 24 24 24 25 25 26 27 27 26 25 25 26 27 28 28 27 27 27 27 28 28 27 26 26 25 25 25 25 26 28 30 32 34 35 36 36 37
41 38 35 34 35 35 35 35 33 32 32 32 30 28 27 26 25 24 24 25 25 25 25 26 26 26 26 26 26 26 25 25 24 24 25 25 26 26 25 25 26 26 25 24 24 24 24 25 26 26 26 26 26 26 27 28 27 26 26 27 28 28 27 26 26 26 27 28 27 26 26 25 25 25 25 26 27 30 32 33 34 35 36 37 37
42 41 39 37 36 36 36 36 34 33 33 33 31 29 28 26 25 24 24 24 25 25 25 26 26 27 27 26 26 25 24 24 24 24 25 25 26 25 25 25 25 24 24 24 25 26 27 27 26 25 25 24 24 25 26 27 27 27 28 28 28 26 26 26 26 26 27 27 26 25 25 25 26 27 27 28 30 31 32 34 35 35 36 37 37
44 44 43 41 38 38 37 36 35 34 34 33 31 29 27 26 25 25 25 25 25 25 26 26 27 27 28 27 26 25 24 24 25 25 25 26 26 25 25 24 24 23 24 25 25 25 24 23 22 22 22 22 23 24 25 26 26 27 27 27 27 26 27 27 26 25 24 24 25 25 26 27 28 29 30 31 32 33 33 34 35 35 36 37 38
47 47 47 44 41 40 39 37 36 36 35 33 30 28 28 27 27 26 26 26 26 26 27 27 27 28 28 27 26 25 25 25 25 25 24 24 24 24 23 23 23 23 23 23 23 22 20 19 19 19 19 19 20 20 21 22 23 24 26 26 26 27 27 26 25 24 24 25 27 27 28 30 31 32 33 34 35 34 35 35 36 36 37 38 39
51 50 50 47 43 42 40 38 37 37 35 32 30 29 29 29 28 27 27 28 28 28 28 28 28 28 27 27 26 25 24 24 24 23 23 22 22 23 23 22 22 22 22 22 21 20 19 18 17 17 17 17 17 17 18 19 20 21 22 22 24 25 25 25 25 25 27 29 30 31 32 33 33 34 35 36 36 35 36 37 37 37 38 39 40
55 53 51 49 46 44 41 39 38 37 35 32 31 31 30 29 29 28 28 29 29 29 28 28 28 27 27 26 25 25 24 23 23 23 23 22 23 23 23 23 22 22 22 21 20 19 19 18 18 18 19 19 20 20 21 22 23 23 22 23 26 27 27 28 28 28 30 32 33 33 34 35 36 37 37 36 36 36 37 37 37 38 38 39 41
58 57 53 51 49 46 43 41 39 37 35 33 32 31 30 30 29 29 29 30 30 29 29 28 28 28 28 27 26 25 25 25 25 24 24 23 24 24 24 24 24 23 21 20 19 19 19 20 20 20 21 22 23 23 24 25 27 28 28 30 31 31 32 34 34 32 32 33 34 33 34 36 38 39 39 37 36 37 38 38 38 38 39 41 43
55 59 57 54 50 47 43 40 38 36 35 34 32 31 30 29 29 30 29 29 29 29 29 29 29 29 29 29 28 27 27 26 26 26 25 24 25 25 26 26 26 25 23 22 22 22 23 23 24 23 24 24 25 27 28 29 31 33 35 35 35 35 38 40 38 35 34 35 35 34 36 38 38 38 38 38 38 39 40 39 39 39 41 43 45
52 59 60 56 51 46 43 39 37 37 35 34 33 32 31 30 29 29 29 29 29 30 30 30 30 31 31 31 30 30 29 28 28 27 27 27 28 28 29 29 28 28 27 27 27 27 28 28 28 28 27 28 30 31 32 34 35 37 38 39 39 41 43 43 40 37 36 36 35 35 38 39 38 37 39 40 40 41 41 41 40 41 42 45 46
50 58 61 56 50 45 42 39 38 38 37 36 35 33 31 30 29 29 29 30 30 30 30 30 31 31 32 32 32 32 31 31 30 31 31 31 32 32 33 32 31 31 32 32 32 32 32 32 33 32 32 33 34 35 37 38 39 40 41 41 42 43 44 43 41 40 38 36 36 37 38 39 38 37 38 40 41 41 41 41 42 43 44 46 47
51 55 57 54 49 45 42 41 40 39 38 37 36 34 32 31 30 29 30 31 31 29 29 30 32 32 32 33 33 33 33 33 33 34 34 34 35 36 35 34 33 34 35 36 36 36 36 36 36 36 36 37 39 40 41 41 41 43 45 45 43 42 42 42 41 40 38 36 36 36 36 36 36 36 37 39 41 41 41 41 42 44 46 47 48
52 55 55 52 47 42 40 39 40 40 38 37 36 34 33 32 31 31 31 31 30 30 30 32 34 35 34 34 34 34 35 36 36 36 37 38 38 38 37 36 36 37 38 38 38 38 39 39 39 40 41 42 43 44 45 45 44 45 47 46 43 41 40 39 37 36 35 34 34 35 34 34 35 35 36 38 40 40 41 42 44 45 47 48 49
49 53 53 50 46 42 39 39 39 38 37 37 35 33 32 33 34 33 32 32 33 34 34 35 36 36 36 37 37 37 37 37 38 39 40 40 40 40 39 39 39 40 40 40 41 41 42 42 43 43 43 44 46 48 49 48 46 45 47 47 43 39 37 34 32 32 33 34 35 35 34 34 35 37 38 39 40 41 43 45 46 47 48 49 50
47 49 50 48 46 44 42 41 40 38 36 35 34 32 32 34 35 35 34 35 36 37 37 36 37 38 38 39 40 40 40 40 41 41 42 42 42 41 41 41 42 43 44 44 45 45 45 45 45 46 46 46 46 47 47 45 43 43 45 46 43 40 38 36 34 33 34 36 37 37 37 37 38 40 40 41 42 44 46 47 48 49 50 51 52
45 47 49 48 47 46 44 40 38 38 37 36 35 33 34 36 36 36 36 36 36 37 38 39 40 41 42 43 44 44 44 44 44 44 44 44 44 44 44 45 46 47 48 48 48 47 47 46 46 46 46 46 45 45 44 42 41 42 43 42 41 40 40 39 38 37 37 38 39 41 41 41 41 42 43 44 45 46 48 49 50 51 53 54 54
47 47 47 46 46 45 44 40 38 38 38 38 37 37 37 37 37 37 36 36 37 38 39 41 42 43 44 45 46 47 47 48 48 47 47 47 48 48 49 50 51 52 52 50 48 46 46 46 45 45 45 46 46 46 45 43 42 41 41 40 39 38 39 40 40 41 41 41 43 44 44 44 44 45 46 47 48 49 50 51 52 53 54 55 55
51 51 49 47 46 45 44 42 40 39 39 39 38 38 38 37 37 36 36 37 38 39 40 41 42 44 46 47 48 49 49 50 50 51 51 51 52 52 53 55 55 54 51 49 47 46 45 45 45 45 46 46 46 46 45 43 41 41 41 41 40 39 39 41 43 44 44 44 45 45 46 46 48 49 50 50 51 52 52 53 54 55 55 55 55
52 52 52 50 48 46 45 43 42 40 40 40 39 39 39 39 38 38 38 39 39 40 40 41 42 44 47 49 50 50 50 50 51 51 51 51 52 52 53 54 54 51 49 49 48 47 46 45 46 47 46 46 46 45 44 42 42 42 42 42 41 42 42 43 44 45 46 47 47 47 48 49 51 52 53 53 54 54 55 55 56 56 56 56 56
54 53 53 53 51 50 48 46 44 43 42 42 42 43 43 43 42 42 42 43 43 43 43 43 42 42 44 47 49 49 48 48 47 48 48 49 49 49 49 49 49 47 46 46 46 46 46 46 47 47 46 44 43 43 42 41 41 41 42 43 43 44 45 45 46 47 48 49 50 51 52 53 54 54 55 55 56 56 57 57 57 57 57 57 57
57 56 56 54 53 54 54 53 50 46 45 46 46 46 46 47 46 46 47 47 47 46 45 45 43 43 45 48 49 50 49 48 46 46 47 48 48 47 46 46 46 45 45 45 45 46 47 48 47 46 44 42 41 41 42 42 42 43 44 45 46 46 47 47 49 50 50 51 53 54 55 56 56 57 57 57 57 58 58 58 58 58 58 58 58
58 59 58 56 55 55 56 56 53 50 48 48 49 50 50 49 49 49 50 51 51 51 50 48 45 46 49 52 52 51 49 47 44 43 44 45 45 46 47 47 48 47 47 46 46 47 48 49 48 46 44 43 43 44 45 45 45 46 48 48 48 49 50 51 52 53 54 55 56 56 57 58 58 58 58 58 58 58 58 59 59 59 59 59 58
59 60 60 59 58 58 59 59 58 56 53 51 52 53 54 54 53 52 52 52 53 54 54 51 48 47 51 54 53 50 48 46 43 41 41 42 44 47 49 49 49 48 47 46 47 48 49 49 48 46 45 45 47 48 49 49 49 49 50 51 51 52 53 54 55 56 56 57 57 58 58 58 58 58 58 59 59 60 60 60 60 60 59 59 59
61 61 61 60 61 62 62 61 62 62 60 57 56 56 57 57 56 55 54 53 54 55 55 53 50 50 52 52 49 46 44 43 41 40 41 42 45 47 48 48 47 46 44 45 46 46 46 45 45 46 48 49 51 52 52 52 52 51 52 52 53 54 55 56 56 57 57 58 58 58 58 58 58 59 59 60 61 62 62 62 61 61 61 61 62
61 62 62 61 62 63 63 63 63 66 67 66 63 61 60 60 60 59 58 57 57 56 55 54 52 49 48 47 45 43 40 39 39 41 43 46 47 48 48 47 46 45 44 45 46 46 46 47 48 50 52 53 54 54 54 54 54 54 54 54 54 55 55 56 57 57 57 58 58 59 59 60 61 62 62 63 64 64 64 63 63 63 64 65 66
63 63 62 61 60 59 59 59 60 63 67 70 67 63 61 61 61 60 58 58 58 57 56 54 52 48 46 46 46 46 45 44 45 46 48 49 50 50 49 48 46 46 46 47 48 49 50 53 54 55 56 56 56 56 56 56 56 57 57 57 58 58 58 59 59 59 59 60 60 61 62 63 64 65 65 65 65 65 65 66 66 67 68 69 69
Wind_Direction
226 225 224 223 223 223 223 222 220 216 213 214 216 218 220 220 218 217 216 214 213 214 215 214 212 206 197 189 181 177 174 173 175 177 177 177 176 174 174 171 167 158 141 113 60 25 28 37 42 45 58 67 313 252 236 223 221 218 206 195 188 180 173 162 145 133 121 117 113 109 102 90 79 69 60 55 50 42 32 24 19 15 13 12 10
225 227 227 227 227 227 225 224 222 220 216 214 216 219 222 223 224 223 222 221 218 218 219 218 214 207 198 193 189 186 185 184 187 192 195 199 203 201 196 194 206 216 199 173 269 302 323 342 2 6 13 68 197 235 229 218 213 212 209 203 200 198 194 192 192 182 150 131 124 118 113 102 83 66 56 54 48 35 25 19 18 15 12 10 9
223 225 227 228 229 230 229 227 225 222 219 217 218 220 222 224 226 226 228 227 224 223 224 222 219 212 204 200 198 196 194 193 196 203 206 213 224 229 223 217 227 246 250 242 270 289 305 310 315 321 319 300 214 226 227 219 211 210 208 204 204 205 202 206 216 214 187 155 145 137 124 114 96 68 57 53 40 28 19 14 15 15 11 8 6
220 223 226 228 230 232 232 231 230 227 223 219 220 223 224 226 227 226 229 230 228 227 229 227 224 219 212 208 206 204 202 201 203 210 214 218 231 243 245 241 240 252 263 262 267 281 295 293 286 287 282 253 219 222 228 224 213 210 208 205 205 208 207 212 223 229 213 185 172 159 138 139 139 85 58 44 30 22 14 8 9 11 10 8 3
220 223 226 228 229 232 234 234 233 232 228 224 223 225 226 227 228 227 227 229 228 228 230 230 227 224 220 215 212 211 209 207 208 214 219 222 231 244 251 254 253 256 264 266 268 273 277 273 263 254 248 240 224 220 226 229 219 211 209 208 207 209 211 215 224 232 224 207 197 189 186 199 197 97 45 28 19 16 10 3 4 7 7 6 360
222 225 228 228 229 232 234 235 235 234 233 229 227 227 228 229 229 228 227 227 227 228 230 231 228 227 226 222 219 217 215 212 212 215 223 229 235 243 250 255 259 262 265 265 264 267 267 261 250 239 232 230 226 222 221 227 224 214 209 210 211 212 214 218 226 232 227 220 215 218 227 229 231 308 1 5 5 5 5 3 1 360 360 0 356
225 230 232 231 232 233 234 236 236 235 234 232 230 229 229 230 231 229 227 227 227 228 230 232 231 230 230 227 224 223 220 216 215 217 224 235 243 248 252 256 259 263 266 265 261 262 262 255 248 238 226 223 225 223 219 222 225 217 211 210 213 215 217 220 227 230 228 225 224 231 239 237 248 295 319 343 349 348 353 359 356 350 349 351 352
231 234 237 236 235 235 235 236 236 236 236 233 231 230 231 232 232 231 230 229 228 228 230 233 235 235 236 233 229 228 225 220 219 221 226 237 248 253 256 259 263 265 266 264 259 257 256 254 248 240 227 221 223 223 218 220 224 220 213 212 215 218 219 222 229 231 228 226 227 236 250 255 271 298 313 329 334 329 332 344 350 346 343 344 343
235 235 237 238 237 236 236 236 236 237 238 236 234 232 232 233 233 233 232 231 230 229 230 233 237 239 241 240 236 233 230 224 221 223 229 237 247 255 259 261 264 266 265 262 259 253 252 252 249 243 232 224 224 223 219 220 223 222 218 215 217 220 221 226 232 234 232 231 232 242 258 269 281 292 298 308 314 316 322 333 342 341 341 342 339
241 238 239 240 239 239 239 238 238 238 239 239 238 235 233 233 234 234 233 233 232 231 232 234 237 240 243 244 242 238 235 229 224 226 231 238 245 256 262 263 263 265 263 260 258 255 252 252 250 246 238 229 226 225 221 221 223 223 221 219 220 221 224 229 235 237 236 236 239 247 258 267 276 282 285 294 304 312 319 326 333 335 337 342 340
241 238 239 241 241 242 242 241 240 239 239 240 240 238 235 234 235 234 234 235 234 233 234 235 238 241 243 245 245 243 239 233 227 228 233 239 244 253 261 262 262 263 261 259 258 257 256 255 252 248 242 234 229 227 223 222 224 224 222 222 222 224 227 233 237 237 237 238 241 247 254 262 269 275 279 286 298 308 315 321 327 329 329 333 336
238 234 234 240 243 244 246 245 244 242 240 239 240 240 238 236 235 235 235 236 236 235 235 236 238 240 242 244 245 244 242 237 232 231 235 239 244 251 257 259 259 260 259 258 259 260 261 260 256 252 246 237 231 229 227 225 227 226 223 222 224 227 231 235 237 238 238 238 241 247 252 257 263 270 275 281 291 302 309 316 320 321 324 329 332
235 231 230 235 241 246 248 248 247 245 242 240 240 240 240 238 238 237 236 237 238 237 236 237 238 240 241 243 244 242 241 239 235 234 236 239 244 251 256 256 257 259 258 257 258 261 261 260 257 253 248 241 233 231 230 230 230 229 226 224 226 229 234 237 238 239 239 239 240 246 251 255 260 267 272 277 286 296 304 309 313 316 321 327 328
232 230 228 229 234 241 247 250 250 248 245 242 242 242 243 241 240 238 237 237 238 239 239 239 240 240 240 241 242 242 240 238 237 236 237 239 243 250 256 257 256 257 258 255 255 256 257 259 258 254 250 244 236 232 233 233 232 231 229 228 229 231 235 238 240 241 242 241 241 244 250 255 259 263 269 276 283 290 297 303 308 313 319 323 323
233 232 229 225 227 234 242 248 251 250 247 244 243 244 246 245 243 241 239 238 239 240 241 240 241 242 241 241 241 241 240 238 237 238 238 240 242 247 254 257 255 255 255 253 252 252 254 257 258 255 251 246 239 233 234 236 235 233 232 232 233 235 237 240 242 244 244 245 244 245 249 255 259 263 269 274 279 285 292 301 308 312 315 318 319
233 233 232 226 223 228 236 243 248 250 249 245 242 244 246 247 246 243 241 239 239 241 242 242 243 244 244 242 241 241 240 238 238 240 241 240 241 246 252 256 254 252 252 252 252 253 254 254 255 254 251 247 241 236 236 238 238 236 235 234 237 239 241 242 244 245 247 248 248 248 249 253 258 263 269 274 279 285 294 303 308 309 311 314 316
235 235 237 233 226 226 231 237 242 247 248 244 241 243 244 245 246 245 243 241 240 241 243 244 244 245 246 245 243 242 242 240 238 240 242 241 240 244 251 255 253 251 251 253 253 253 252 252 252 252 250 246 242 239 239 241 241 239 238 237 238 240 243 244 245 247 249 251 252 252 253 256 260 264 270 275 280 287 294 300 302 303 306 310 314
241 238 239 238 233 228 230 233 236 241 245 243 240 240 242 243 244 244 243 242 241 241 242 244 245 245 247 247 246 245 244 242 240 240 243 243 241 244 250 254 252 249 250 252 253 253 253 253 253 253 251 249 246 243 243 244 243 242 242 242 241 242 244 246 248 249 251 253 254 254 257 261 265 269 273 276 281 286 292 296 297 300 304 309 314
244 240 238 239 238 232 230 231 233 237 240 240 238 239 240 242 242 242 242 242 242 242 242 244 245 246 246 248 249 248 247 246 244 243 243 244 243 243 248 252 251 248 249 251 253 254 255 255 255 254 254 254 252 249 248 248 246 244 246 246 244 244 246 249 251 254 256 257 258 258 260 264 268 271 274 277 281 285 290 293 295 296 301 308 313
243 239 235 236 237 236 233 231 232 235 237 237 237 238 238 240 241 242 241 242 242 243 243 245 246 246 247 248 249 250 250 248 247 245 245 245 243 242 245 249 249 246 247 251 254 255 256 256 257 257 257 258 258 256 254 253 249 246 246 246 246 246 248 251 254 257 259 261 263 265 266 268 270 272 274 278 282 286 289 292 294 295 300 307 313
240 236 236 236 237 237 236 233 232 234 235 235 237 238 238 239 241 243 243 242 242 243 244 246 247 248 248 248 249 250 251 249 247 246 246 245 244 242 243 245 245 245 246 250 253 256 257 258 258 259 259 261 261 260 259 258 254 249 245 244 245 247 250 254 257 259 260 262 265 269 270 272 273 274 276 279 282 285 288 290 293 297 302 308 313
240 236 236 236 236 237 236 234 233 235 236 235 237 239 239 239 240 242 244 243 242 243 244 245 247 249 249 249 249 249 250 249 247 246 246 245 244 243 242 242 242 243 245 248 251 254 256 257 259 261 263 264 263 262 261 261 259 253 246 244 246 249 253 256 258 260 261 262 265 269 271 271 272 273 277 281 283 286 290 293 297 300 305 309 312
244 240 236 235 235 236 235 234 233 236 239 239 239 240 239 238 238 241 244 244 242 243 243 244 246 248 248 249 248 247 248 249 247 245 244 244 243 242 240 239 239 241 243 246 249 252 254 257 260 261 262 264 263 261 259 260 259 254 249 247 248 250 253 257 259 260 262 264 267 269 271 271 271 272 277 282 284 288 294 298 300 303 306 309 312
247 244 238 235 235 235 234 234 233 237 241 243 243 244 242 239 238 240 242 243 242 241 242 243 244 245 246 247 247 246 246 247 246 243 241 241 241 240 239 238 238 240 243 245 248 251 254 256 257 258 260 262 263 262 260 258 256 253 252 253 253 253 254 258 261 263 264 266 268 270 271 272 272 275 279 282 285 291 296 299 301 303 306 309 310
249 248 241 235 234 234 235 234 234 237 242 245 247 248 246 242 238 238 240 241 240 239 239 241 242 243 244 245 245 245 245 245 243 240 238 238 238 238 238 237 237 240 243 246 248 252 254 254 254 255 258 260 261 262 263 262 259 257 256 257 258 258 259 262 265 269 270 270 271 272 273 273 274 276 280 283 288 294 297 298 300 303 305 307 308
246 247 242 235 232 233 235 235 236 238 243 246 248 249 248 244 240 239 239 239 237 236 236 238 240 242 243 244 245 245 244 242 239 236 236 236 236 237 237 236 236 239 243 247 250 252 252 252 252 255 258 260 261 263 263 264 264 261 259 260 261 262 265 270 274 276 275 274 274 275 274 274 275 277 280 284 290 294 295 296 299 302 304 305 306
243 243 240 234 231 232 234 235 237 240 243 246 248 248 248 245 242 240 240 239 238 236 235 237 239 241 243 244 244 243 240 237 234 233 234 235 236 236 236 236 237 240 244 249 252 252 252 254 258 261 264 265 266 264 263 264 265 264 262 263 265 268 272 277 280 279 277 276 277 276 275 275 276 278 280 283 288 291 293 295 298 300 302 303 304
239 240 239 235 231 231 233 234 236 239 242 245 246 246 245 245 244 242 240 239 237 236 235 236 237 239 240 240 239 237 235 232 231 230 231 233 235 235 236 238 239 242 245 248 251 253 256 260 263 265 265 265 265 263 263 263 264 265 266 267 270 273 276 278 278 276 275 276 276 275 274 275 277 278 280 283 286 288 290 293 295 298 299 301 302
236 237 238 236 232 231 232 234 234 237 241 244 243 243 244 243 242 241 239 238 237 236 235 235 235 236 236 236 235 233 231 230 230 230 231 233 235 237 238 240 243 244 246 247 250 254 257 260 261 261 260 259 260 262 263 263 263 264 266 268 271 272 274 274 273 272 272 272 271 271 272 275 277 278 280 282 284 286 289 291 293 296 298 299 301
233 234 235 235 233 232 231 233 234 236 241 242 241 241 241 241 240 239 238 237 237 236 234 234 234 234 235 235 235 234 233 233 234 235 235 235 238 240 241 241 242 242 243 245 247 250 252 253 254 255 255 255 258 262 263 262 262 262 264 266 268 270 271 271 271 272 273 272 272 273 275 276 277 278 280 282 283 285 288 291 293 295 297 298 300
226 229 232 233 232 232 231 231 232 236 240 240 239 239 239 239 238 238 237 237 236 235 234 234 234 234 235 235 236 236 236 236 237 237 236 235 237 239 239 237 237 238 241 244 245 247 249 250 251 255 259 261 265 268 269 269 269 269 270 271 271 272 272 272 272 273 275 275 276 276 277 277 277 279 282 283 284 284 286 290 293 295 296 298 300
222 222 227 230 230 230 230 229 231 235 238 237 236 237 237 238 238 237 236 237 237 236 234 233 234 234 235 235 235 235 235 235 234 234 234 232 231 231 232 233 236 239 243 246 248 249 251 252 254 259 264 268 270 273 276 277 278 278 276 274 272 273 274 274 272 271 272 274 276 277 277 277 278 280 282 283 283 284 286 289 291 293 295 297 299
224 218 219 224 227 228 228 228 231 235 236 234 233 235 235 236 236 236 235 236 236 236 235 234 234 234 234 234 234 232 232 233 233 234 232 228 226 228 232 236 240 244 247 250 252 254 256 257 257 259 263 267 270 273 275 277 277 276 273 270 268 270 272 269 266 267 271 273 274 277 279 280 279 279 279 279 280 283 285 287 289 291 294 296 298
226 220 217 217 220 224 226 227 230 233 232 229 229 231 232 232 233 234 235 236 236 237 237 236 235 235 234 233 232 231 231 233 234 234 231 227 227 231 236 240 245 250 253 256 258 260 261 261 260 260 262 265 268 270 271 273 273 273 272 272 272 271 270 267 265 266 269 270 273 277 280 280 278 276 275 276 278 281 283 285 287 290 293 295 297
225 223 220 215 212 216 221 224 227 229 227 226 227 228 230 231 232 234 236 237 237 237 237 236 235 235 234 234 233 232 232 233 234 233 232 231 233 237 241 244 249 254 256 258 260 262 264 265 265 265 266 267 269 270 272 273 273 273 275 277 277 276 274 273 272 270 268 268 271 276 277 276 275 273 272 274 277 279 281 283 285 288 291 294 296
224 223 222 216 209 210 215 220 223 224 224 224 226 228 230 232 234 235 237 238 238 238 238 238 238 237 236 235 234 234 235 235 235 235 235 235 238 241 244 247 251 254 256 258 261 264 266 268 270 271 271 271 270 271 272 273 274 274 273 272 272 273 275 276 274 273 272 272 273 273 272 272 272 272 272 273 275 277 280 282 284 287 290 293 295
225 220 220 217 210 206 210 214 218 221 223 224 226 228 231 233 235 236 238 240 241 241 242 241 241 240 239 238 237 236 236 237 237 237 238 239 242 245 247 249 251 253 255 258 261 264 266 269 271 272 272 270 270 271 272 273 272 272 272 271 271 271 272 272 272 272 274 274 272 269 268 269 271 272 273 274 275 277 278 280 283 287 290 292 294
223 215 215 217 214 211 213 216 218 220 223 225 227 229 232 235 237 238 241 243 244 244 243 242 242 242 241 240 239 239 239 239 239 240 241 243 244 246 249 251 252 254 256 258 260 262 265 268 270 271 271 271 271 272 271 270 271 272 274 275 275 273 272 272 271 271 270 268 266 264 266 269 271 273 275 275 276 277 278 280 283 286 288 290 292
219 213 213 217 219 218 218 220 221 222 224 227 229 231 234 238 240 240 241 242 243 242 242 243 244 245 245 244 243 243 242 242 242 243 243 245 246 248 250 252 254 255 257 258 260 262 264 267 269 270 271 272 272 271 269 268 270 273 274 274 274 273 273 275 274 271 268 266 265 266 269 272 274 276 276 277 277 278 279 280 283 286 288 290 292
218 216 217 218 220 219 216 216 220 224 227 230 233 234 237 241 243 243 243 244 244 245 246 247 248 249 249 247 246 245 245 245 245 246 247 248 249 251 252 253 255 256 257 258 260 262 264 267 269 270 271 271 271 271 269 268 269 270 272 273 273 271 271 274 274 271 269 268 269 270 272 273 274 275 276 277 277 278 280 282 284 286 288 289 291
221 220 219 219 220 219 216 215 218 223 227 232 234 235 238 242 244 245 245 245 246 248 249 249 250 250 251 250 249 248 247 247 248 249 250 251 252 253 254 254 255 255 256 258 260 262 265 268 270 270 270 269 269 268 268 268 267 268 270 273 273 269 267 269 270 270 269 269 270 272 274 275 275 275 275 276 278 279 281 283 284 286 288 289 290
227 226 225 224 222 220 218 219 221 224 229 233 234 236 240 242 242 243 243 244 245 247 249 251 252 253 254 254 253 252 250 250 250 251 251 251 252 252 253 254 255 255 256 257 261 264 267 268 268 267 266 266 266 266 266 267 266 266 268 271 272 270 268 268 268 269 270 270 271 273 275 276 276 277 277 278 279 281 282 283 284 285 287 288 289
230 230 230 230 228 225 223 222 223 225 230 234 236 239 241 242 242 243 245 245 246 248 250 253 256 256 255 255 255 253 250 250 251 252 253 253 253 253 253 254 256 259 260 261 264 266 266 265 264 264 264 264 264 264 265 265 265 265 266 268 269 270 269 268 269 269 269 269 270 272 274 276 277 278 279 280 281 282 283 284 285 286 287 288 289
229 231 232 233 233 231 227 225 224 225 229 233 236 239 242 243 244 246 247 249 251 253 254 257 260 259 256 254 253 252 249 249 250 251 253 254 254 253 253 254 256 259 262 264 266 266 264 263 264 264 264 264 264 264 265 265 265 265 265 265 267 268 269 269 269 269 269 270 271 273 274 276 277 278 279 280 282 283 284 285 286 286 287 288 289
228 231 233 234 235 233 232 232 231 229 230 232 235 238 241 244 246 248 250 252 253 254 255 257 259 258 254 250 249 248 246 246 248 250 251 252 252 253 254 255 257 259 260 261 262 262 262 264 265 266 266 266 266 266 265 264 264 264 264 264 266 268 268 269 269 270 270 272 273 275 276 277 278 279 280 282 283 284 285 285 286 287 287 288 288
228 229 231 234 234 233 233 236 238 235 232 233 235 238 241 243 246 249 251 252 253 253 254 255 256 254 249 245 243 242 242 242 245 248 251 253 254 255 256 257 258 259 260 260 261 262 263 265 266 266 267 267 265 264 264 265 266 266 266 266 267 268 268 269 271 272 273 274 275 276 277 278 279 281 282 282 283 284 284 285 286 286 287 287 287
230 230 231 233 234 233 233 234 237 236 235 234 236 238 240 243 246 248 250 252 252 253 253 254 254 252 250 246 242 241 241 243 246 250 254 256 257 257 257 258 259 259 261 262 263 264 266 266 265 264 263 264 265 265 266 267 267 268 268 269 270 270 271 271 273 273 274 275 276 276 277 279 280 280 281 281 282 283 283 284 285 285 285 286 286
232 233 232 232 234 234 232 232 234 235 236 236 236 238 240 242 244 246 248 250 251 252 253 253 251 253 256 254 248 242 240 242 245 250 255 260 261 260 259 260 260 261 262 263 264 264 264 264 263 262 263 265 267 268 268 268 267 267 267 268 269 270 271 272 273 273 274 275 276 276 277 278 279 279 280 280 281 282 283 284 284 284 283 283 285
232 234 235 235 236 236 234 233 233 234 235 236 235 236 239 241 242 244 245 247 248 252 254 253 252 255 258 254 245 238 236 238 242 250 258 263 265 264 262 262 261 261 261 261 261 260 260 259 259 261 263 266 269 270 271 270 269 269 269 269 269 270 270 271 272 273 274 275 276 276 277 278 278 278 279 279 280 281 282 282 282 281 281 282 284
231 234 236 237 238 239 238 237 235 234 235 235 234 233 236 238 240 242 244 245 247 250 251 249 250 253 252 244 237 236 238 240 245 253 260 263 264 263 262 260 258 257 257 258 258 256 256 257 259 262 265 268 270 271 270 269 269 269 269 269 269 270 271 271 272 273 274 274 275 276 276 277 277 277 278 279 280 281 281 281 281 280 281 282 284
233 234 236 237 238 239 240 240 239 236 235 235 234 234 234 236 237 239 243 247 250 251 249 247 246 245 240 235 237 242 245 246 249 254 257 259 260 260 259 258 256 255 256 258 258 258 260 262 265 267 268 269 269 268 267 267 267 267 268 268 269 269 270 271 271 272 272 273 274 274 275 275 276 277 278 279 280 281 281 281 281 281 281 283 285
Height
5914 5916 5919 5921 5923 5925 5927 5930 5932 5934 5936 5938 5940 5942 5943 5945 5946 5947 5948 5949 5951 5952 5953 5954 5955 5956 5957 5958 5959 5960 5960 5961 5962 5963 5964 5965 5966 5966 5967 5967 5968 5968 5969 5970 5970 5970 5970 5970 5971 5971 5971 5971 5971 5972 5972 5973 5973 5974 5975 5976 5977 5977 5977 5978 5978 5978 5978 5978 5978 5978 5978 5978 5978 5978 5978 5977 5977 5976 5976 5975 5974 5973 5971 5970 5968
5912 5914 5917 5919 5922 5923 5925 5928 5930 5932 5935 5937 5939 5940 5942 5944 5945 5946 5948 5949 5950 5951 5952 5953 5954 5955 5957 5958 5958 5959 5960 5961 5962 5962 5963 5964 5965 5966 5967 5967 5967 5968 5968 5969 5969 5970 5970 5970 5970 5971 5971 5971 5971 5971 5971 5972 5973 5973 5975 5976 5976 5977 5977 5978 5978 5978 5978 5978 5978 5978 5978 5978 5978 5978 5978 5977 5977 5976 5975 5974 5973 5972 5971 5969 5967
5910 5912 5914 5917 5919 5921 5923 5926 5928 5931 5933 5935 5937 5939 5940 5942 5944 5945 5947 5948 5949 5950 5951 5952 5954 5955 5956 5957 5958 5959 5960 5961 5961 5962 5963 5964 5964 5965 5966 5967 5967 5967 5968 5968 5969 5969 5970 5970 5970 5970 5971 5971 5971 5971 5971 5971 5972 5973 5974 5975 5976 5977 5977 5978 5978 5978 5978 5978 5978 5978 5978 5978 5978 5978 5978 5977 5977 5976 5975 5974 5973 5971 5970 5968 5966
5908 5910 5912 5915 5917 5919 5921 5924 5926 5929 5931 5934 5935 5937 5939 5940 5942 5944 5945 5947 5949 5949 5950 5952 5953 5954 5955 5957 5957 5959 5959 5960 5961 5962 5963 5963 5964 5964 5965 5966 5967 5967 5967 5968 5968 5969 5969 5969 5969 5969 5970 5970 5970 5970 5970 5970 5971 5972 5973 5974 5975 5976 5976 5977 5977 5977 5978 5978 5978 5978 5978 5978 5978 5978 5977 5977 5976 5975 5974 5973 5972 5970 5969 5967 5965
5907 5908 5910 5912 5914 5917 5919 5921 5924 5927 5930 5932 5934 5935 5937 5939 5940 5942 5944 5945 5947 5948 5949 5951 5952 5953 5954 5956 5957 5958 5959 5960 5961 5961 5962 5963 5964 5964 5965 5965 5966 5967 5967 5968 5968 5968 5968 5968 5969 5969 5969 5969 5969 5969 5969 5970 5970 5971 5972 5973 5974 5975 5976 5976 5977 5977 5977 5977 5977 5978 5978 5978 5978 5977 5977 5976 5975 5975 5973 5972 5971 5970 5968 5967 5966
5905 5907 5908 5910 5912 5914 5917 5919 5922 5925 5927 5930 5931 5933 5935 5936 5938 5940 5942 5944 5945 5947 5948 5949 5951 5952 5953 5954 5955 5956 5958 5959 5960 5961 5962 5963 5963 5964 5964 5965 5965 5966 5966 5967 5967 5967 5967 5967 5968 5968 5968 5968 5968 5968 5969 5969 5969 5970 5971 5972 5973 5974 5974 5975 5976 5976 5976 5976 5977 5977 5977 5977 5977 5976 5976 5975 5975 5974 5973 5972 5970 5969 5968 5967 5966
5904 5906 5907 5909 5911 5912 5915 5917 5919 5922 5924 5927 5928 5930 5932 5934 5936 5938 5940 5942 5944 5945 5946 5948 5949 5950 5951 5953 5954 5955 5957 5958 5960 5961 5962 5962 5963 5963 5964 5964 5965 5965 5965 5966 5966 5966 5966 5966 5966 5967 5967 5967 5967 5967 5968 5968 5968 5969 5970 5971 5972 5973 5973 5974 5974 5975 5975 5975 5976 5976 5976 5976 5976 5975 5975 5974 5974 5973 5972 5971 5970 5968 5967 5965 5964
5903 5904 5906 5908 5909 5911 5913 5914 5917 5919 5921 5923 5925 5928 5930 5932 5934 5936 5938 5940 5942 5944 5945 5946 5947 5948 5950 5951 5953 5954 5955 5957 5959 5960 5961 5962 5962 5963 5963 5964 5964 5964 5965 5965 5965 5965 5965 5965 5966 5966 5966 5966 5966 5966 5967 5967 5967 5968 5968 5969 5970 5971 5972 5973 5973 5974 5974 5974 5975 5975 5975 5975 5975 5974 5974 5973 5973 5972 5971 5971 5969 5967 5965 5963 5962
5901 5903 5904 5906 5908 5909 5910 5912 5914 5916 5918 5920 5923 5925 5928 5930 5932 5934 5936 5938 5939 5941 5943 5944 5945 5947 5948 5950 5952 5953 5954 5956 5958 5959 5960 5960 5961 5962 5962 5963 5963 5963 5963 5964 5964 5964 5964 5964 5965 5965 5965 5965 5965 5965 5965 5966 5966 5967 5967 5968 5969 5970 5971 5971 5972 5972 5973 5973 5973 5973 5973 5973 5973 5973 5972 5972 5971 5971 5970 5969 5968 5967 5965 5963 5960
5899 5901 5903 5904 5906 5907 5909 5910 5912 5914 5916 5918 5920 5923 5925 5927 5929 5932 5934 5935 5937 5939 5941 5942 5944 5945 5947 5948 5950 5952 5953 5955 5956 5957 5958 5959 5960 5961 5961 5962 5962 5962 5962 5963 5963 5963 5963 5963 5964 5964 5963 5964 5964 5964 5964 5965 5965 5965 5966 5967 5967 5968 5969 5970 5970 5971 5971 5971 5972 5972 5972 5972 5972 5972 5971 5971 5970 5969 5968 5968 5967 5966 5965 5963 5961
5897 5899 5901 5902 5903 5905 5907 5908 5910 5911 5913 5915 5917 5920 5922 5924 5927 5929 5931 5933 5935 5937 5939 5940 5942 5943 5945 5946 5948 5950 5952 5953 5954 5955 5956 5957 5958 5959 5960 5960 5961 5961 5961 5961 5962 5962 5962 5962 5962 5962 5962 5962 5963 5963 5963 5964 5964 5964 5965 5965 5966 5967 5967 5968 5969 5969 5970 5970 5970 5970 5971 5971 5971 5970 5970 5969 5968 5968 5967 5966 5965 5964 5963 5962 5961
5894 5897 5898 5899 5901 5903 5905 5906 5908 5909 5911 5913 5915 5917 5919 5922 5924 5927 5929 5931 5932 5934 5936 5938 5940 5941 5942 5944 5946 5948 5950 5951 5952 5953 5954 5955 5957 5958 5959 5959 5959 5959 5960 5960 5960 5960 5961 5961 5961 5961 5961 5961 5961 5962 5962 5962 5962 5963 5963 5964 5965 5965 5966 5967 5967 5968 5968 5969 5969 5969 5969 5970 5969 5969 5968 5967 5967 5966 5965 5964 5963 5962 5961 5960 5958
5892 5894 5896 5897 5899 5901 5902 5904 5905 5907 5908 5910 5912 5914 5917 5919 5922 5924 5927 5929 5930 5932 5934 5936 5937 5939 5940 5942 5944 5945 5947 5949 5950 5951 5952 5953 5955 5956 5957 5957 5958 5958 5958 5959 5959 5959 5959 5959 5959 5959 5959 5960 5960 5960 5961 5961 5961 5962 5962 5963 5963 5964 5964 5965 5965 5966 5967 5967 5967 5967 5968 5968 5968 5967 5966 5965 5965 5964 5964 5962 5961 5959 5958 5957 5956
5888 5891 5894 5896 5897 5899 5900 5902 5903 5904 5906 5907 5909 5912 5914 5917 5919 5921 5923 5926 5928 5929 5931 5933 5935 5936 5938 5939 5941 5942 5944 5946 5947 5949 5949 5951 5952 5954 5955 5956 5956 5956 5957 5957 5957 5957 5957 5957 5958 5958 5958 5958 5958 5959 5959 5959 5960 5960 5960 5961 5961 5962 5963 5963 5964 5964 5965 5965 5966 5966 5966 5965 5965 5965 5964 5963 5963 5962 5962 5961 5959 5957 5956 5954 5953
5885 5888 5891 5894 5896 5897 5898 5900 5901 5902 5904 5905 5907 5909 5911 5914 5916 5918 5920 5923 5925 5926 5928 5930 5932 5933 5935 5937 5938 5939 5941 5943 5945 5946 5947 5948 5950 5951 5953 5954 5954 5954 5954 5955 5955 5955 5956 5956 5956 5956 5956 5956 5956 5957 5957 5957 5958 5958 5958 5959 5959 5960 5961 5961 5962 5962 5963 5963 5964 5964 5964 5963 5963 5963 5962 5961 5961 5960 5960 5959 5957 5955 5954 5952 5950
5882 5885 5888 5891 5893 5895 5896 5898 5899 5900 5902 5903 5905 5907 5909 5911 5913 5915 5917 5919 5921 5923 5925 5927 5929 5930 5932 5934 5935 5936 5938 5940 5942 5943 5944 5945 5947 5949 5950 5951 5952 5952 5952 5952 5953 5953 5954 5954 5954 5954 5954 5954 5955 5955 5955 5956 5956 5956 5957 5957 5957 5958 5959 5959 5959 5960 5960 5960 5961 5961 5961 5961 5960 5960 5959 5959 5958 5958 5957 5956 5955 5953 5952 5950 5948
5880 5883 5885 5888 5891 5893 5894 5896 5897 5899 5900 5902 5903 5905 5906 5908 5910 5912 5913 5915 5918 5920 5922 5924 5926 5927 5928 5930 5932 5934 5935 5937 5939 5940 5941 5942 5944 5946 5948 5949 5949 5949 5949 5950 5951 5951 5951 5951 5952 5952 5952 5952 5953 5953 5954 5954 5954 5955 5955 5955 5955 5956 5957 5957 5957 5957 5958 5958 5958 5959 5958 5958 5958 5958 5957 5956 5956 5955 5955 5954 5952 5951 5950 5948 5946
5878 5880 5882 5885 5888 5890 5892 5894 5895 5897 5898 5900 5901 5902 5904 5905 5907 5909 5910 5912 5914 5917 5918 5920 5922 5924 5925 5927 5929 5930 5932 5934 5936 5937 5938 5939 5941 5943 5945 5946 5946 5947 5947 5947 5948 5949 5949 5949 5950 5950 5950 5950 5951 5951 5952 5952 5952 5953 5953 5953 5953 5954 5954 5954 5954 5955 5955 5956 5956 5956 5956 5956 5955 5955 5954 5953 5953 5952 5952 5951 5950 5948 5947 5945 5944
5876 5878 5880 5882 5884 5887 5889 5891 5893 5894 5896 5897 5899 5900 5901 5902 5904 5905 5907 5909 5911 5913 5915 5916 5918 5921 5922 5923 5925 5927 5928 5930 5932 5934 5935 5936 5938 5940 5941 5943 5943 5943 5944 5944 5945 5946 5947 5947 5948 5948 5948 5949 5949 5949 5950 5950 5951 5951 5951 5951 5952 5952 5952 5951 5951 5952 5952 5953 5953 5953 5953 5953 5953 5952 5951 5951 5950 5949 5949 5948 5946 5945 5944 5942 5940
5873 5875 5877 5878 5880 5883 5885 5888 5890 5892 5893 5894 5896 5897 5898 5899 5901 5902 5904 5906 5907 5909 5911 5913 5915 5917 5919 5920 5921 5923 5925 5927 5929 5930 5931 5933 5934 5936 5938 5939 5940 5940 5940 5941 5942 5943 5944 5945 5945 5946 5946 5946 5947 5947 5948 5948 5949 5949 5949 5949 5950 5949 5949 5948 5949 5949 5949 5949 5949 5949 5950 5949 5949 5949 5948 5948 5947 5946 5945 5944 5943 5941 5940 5939 5937
5869 5871 5873 5875 5877 5879 5882 5884 5886 5888 5890 5891 5892 5894 5895 5897 5898 5899 5900 5902 5904 5906 5908 5910 5911 5913 5915 5916 5918 5920 5921 5923 5925 5926 5927 5929 5930 5932 5934 5936 5936 5936 5937 5938 5939 5941 5941 5942 5943 5943 5943 5944 5944 5945 5945 5946 5946 5946 5947 5947 5947 5946 5946 5946 5946 5946 5946 5946 5946 5946 5946 5946 5945 5945 5945 5944 5943 5942 5942 5941 5940 5938 5936 5934 5933
5864 5867 5870 5872 5874 5876 5878 5880 5882 5884 5886 5888 5889 5891 5893 5894 5895 5896 5897 5899 5900 5902 5904 5906 5908 5909 5911 5913 5915 5917 5918 5919 5921 5923 5923 5925 5926 5928 5930 5932 5932 5933 5934 5935 5936 5937 5938 5939 5939 5940 5940 5940 5941 5942 5942 5943 5943 5944 5944 5944 5944 5944 5943 5943 5943 5943 5943 5943 5943 5942 5942 5942 5942 5942 5942 5941 5940 5939 5938 5937 5936 5934 5932 5930 5929
5860 5863 5866 5868 5870 5872 5874 5876 5878 5880 5882 5884 5886 5888 5889 5891 5892 5893 5894 5895 5897 5899 5901 5903 5904 5906 5908 5909 5911 5913 5914 5916 5917 5919 5920 5921 5922 5924 5926 5928 5928 5929 5931 5932 5933 5934 5935 5936 5936 5936 5937 5937 5938 5938 5939 5939 5940 5940 5940 5940 5940 5941 5941 5940 5940 5940 5940 5940 5939 5939 5939 5938 5938 5939 5939 5938 5936 5935 5934 5933 5932 5930 5928 5927 5925
5855 5859 5862 5865 5866 5868 5871 5872 5874 5876 5878 5880 5882 5884 5886 5887 5889 5890 5891 5892 5894 5895 5897 5899 5901 5903 5904 5906 5907 5909 5911 5912 5914 5915 5916 5917 5918 5921 5922 5924 5925 5926 5927 5928 5929 5930 5932 5932 5933 5933 5933 5933 5934 5934 5935 5936 5936 5936 5936 5936 5937 5937 5937 5937 5937 5936 5936 5936 5936 5935 5935 5935 5935 5936 5936 5934 5933 5933 5931 5930 5929 5927 5925 5923 5922
5851 5855 5859 5861 5862 5865 5867 5868 5870 5872 5874 5876 5878 5880 5882 5883 5885 5887 5887 5889 5890 5892 5894 5895 5897 5899 5901 5902 5904 5905 5907 5908 5910 5911 5912 5914 5915 5917 5919 5921 5922 5923 5924 5925 5926 5927 5928 5929 5929 5929 5929 5930 5930 5930 5931 5931 5932 5932 5933 5933 5933 5933 5933 5933 5933 5933 5933 5932 5932 5932 5932 5931 5932 5932 5932 5930 5930 5930 5928 5926 5925 5924 5922 5920 5918
5848 5851 5854 5856 5858 5860 5862 5864 5866 5868 5870 5872 5874 5876 5878 5880 5882 5883 5884 5885 5887 5889 5890 5892 5894 5895 5897 5898 5900 5901 5903 5905 5906 5908 5909 5911 5912 5914 5915 5917 5918 5919 5920 5921 5923 5924 5924 5924 5924 5925 5925 5926 5926 5926 5927 5927 5928 5929 5929 5929 5929 5929 5929 5929 5929 5929 5929 5928 5928 5928 5928 5928 5928 5928 5928 5927 5927 5926 5924 5923 5922 5920 5919 5917 5915
5844 5846 5849 5851 5853 5855 5858 5860 5862 5864 5866 5868 5870 5872 5874 5876 5878 5880 5881 5882 5884 5885 5887 5889 5890 5892 5893 5895 5896 5898 5899 5901 5903 5905 5906 5908 5909 5911 5912 5913 5915 5916 5917 5918 5919 5920 5919 5920 5920 5921 5921 5922 5922 5923 5923 5923 5924 5925 5925 5925 5925 5925 5926 5926 5926 5925 5925 5924 5924 5924 5924 5924 5924 5924 5924 5924 5923 5922 5921 5919 5918 5916 5915 5913 5911
5840 5842 5844 5846 5848 5850 5853 5855 5857 5859 5861 5863 5865 5868 5870 5872 5874 5876 5878 5879 5880 5882 5884 5885 5887 5888 5889 5891 5892 5894 5896 5898 5900 5902 5903 5904 5905 5907 5908 5910 5911 5912 5914 5914 5915 5915 5915 5916 5917 5917 5918 5918 5919 5919 5919 5920 5920 5921 5921 5921 5921 5922 5922 5922 5921 5921 5920 5920 5920 5920 5920 5920 5920 5920 5920 5919 5919 5918 5917 5915 5914 5912 5911 5909 5907
5834 5836 5837 5840 5843 5845 5847 5850 5852 5854 5856 5858 5861 5863 5866 5869 5870 5872 5874 5875 5876 5878 5880 5881 5883 5884 5885 5887 5889 5891 5893 5895 5897 5898 5899 5901 5902 5903 5905 5906 5908 5909 5910 5910 5910 5911 5912 5913 5914 5914 5914 5914 5915 5915 5915 5916 5916 5916 5917 5917 5917 5917 5917 5917 5916 5916 5916 5916 5916 5916 5916 5916 5915 5915 5915 5914 5914 5914 5912 5911 5909 5908 5906 5905 5903
5827 5829 5830 5833 5836 5839 5842 5844 5847 5849 5851 5853 5857 5860 5862 5864 5866 5868 5870 5871 5873 5874 5876 5878 5879 5881 5882 5884 5886 5888 5890 5892 5893 5894 5896 5898 5899 5900 5902 5903 5904 5905 5905 5906 5907 5908 5909 5910 5910 5910 5911 5911 5911 5912 5912 5912 5913 5913 5913 5913 5913 5912 5912 5912 5912 5912 5912 5912 5912 5912 5912 5911 5911 5911 5910 5909 5909 5909 5908 5906 5904 5903 5902 5900 5899
5817 5821 5825 5828 5831 5834 5837 5839 5842 5844 5846 5849 5852 5855 5857 5859 5862 5864 5866 5867 5869 5870 5872 5874 5875 5877 5879 5881 5883 5885 5887 5888 5890 5891 5894 5895 5896 5897 5898 5899 5900 5901 5902 5903 5904 5905 5906 5907 5907 5907 5908 5908 5909 5909 5909 5909 5909 5909 5909 5909 5909 5908 5908 5908 5908 5908 5908 5907 5907 5907 5907 5907 5906 5906 5905 5905 5904 5904 5903 5901 5900 5898 5897 5896 5894
5810 5813 5818 5823 5827 5829 5832 5835 5837 5839 5841 5844 5848 5850 5852 5855 5857 5859 5862 5863 5865 5866 5868 5870 5872 5874 5876 5878 5880 5882 5883 5885 5887 5888 5890 5892 5893 5894 5895 5896 5897 5898 5899 5900 5901 5902 5903 5903 5904 5904 5904 5905 5905 5905 5905 5905 5905 5905 5905 5905 5904 5903 5903 5903 5903 5902 5902 5902 5902 5902 5902 5902 5901 5901 5900 5900 5899 5898 5897 5896 5895 5893 5892 5890 5889
5811 5809 5809 5814 5820 5825 5827 5831 5833 5834 5837 5840 5843 5845 5847 5850 5852 5855 5857 5859 5861 5863 5865 5867 5869 5871 5873 5875 5877 5878 5880 5881 5883 5885 5887 5888 5890 5890 5891 5892 5893 5894 5895 5896 5898 5899 5899 5899 5900 5900 5901 5901 5901 5901 5901 5900 5900 5900 5899 5898 5897 5898 5897 5895 5894 5896 5897 5897 5897 5897 5897 5897 5896 5896 5895 5895 5894 5893 5892 5891 5890 5888 5886 5885 5883
5811 5810 5806 5805 5811 5818 5822 5826 5828 5830 5832 5836 5838 5840 5842 5845 5848 5850 5853 5855 5857 5859 5861 5863 5865 5867 5869 5871 5873 5875 5876 5878 5880 5882 5883 5885 5886 5887 5887 5888 5889 5891 5892 5893 5894 5894 5895 5895 5896 5896 5897 5897 5897 5897 5896 5895 5895 5894 5893 5892 5893 5893 5891 5888 5888 5890 5891 5890 5891 5892 5892 5891 5890 5890 5889 5889 5888 5887 5886 5885 5884 5883 5881 5879 5878
5804 5807 5807 5804 5804 5809 5815 5820 5822 5825 5828 5831 5833 5835 5838 5840 5843 5845 5848 5851 5853 5855 5857 5859 5861 5863 5865 5867 5869 5871 5873 5875 5876 5878 5879 5881 5882 5883 5884 5885 5886 5887 5888 5889 5889 5890 5891 5891 5892 5892 5893 5893 5893 5892 5891 5890 5889 5889 5890 5891 5890 5887 5886 5886 5886 5885 5884 5885 5886 5887 5887 5885 5885 5885 5884 5883 5883 5882 5881 5880 5878 5877 5876 5874 5872
5797 5801 5805 5805 5800 5800 5805 5812 5815 5818 5822 5825 5828 5830 5832 5835 5838 5841 5844 5846 5848 5850 5853 5855 5857 5859 5861 5863 5865 5867 5869 5871 5872 5874 5875 5877 5878 5879 5880 5881 5882 5883 5884 5884 5885 5886 5886 5887 5888 5889 5889 5889 5888 5887 5886 5884 5883 5883 5884 5884 5882 5881 5881 5882 5881 5880 5881 5882 5882 5882 5881 5880 5879 5879 5878 5877 5877 5876 5875 5874 5873 5872 5871 5869 5867
5791 5795 5801 5803 5798 5793 5795 5801 5807 5811 5815 5819 5821 5824 5827 5830 5834 5837 5839 5841 5844 5847 5850 5851 5853 5854 5857 5859 5861 5863 5865 5866 5868 5869 5871 5872 5873 5874 5875 5877 5878 5879 5879 5880 5881 5882 5882 5883 5884 5884 5884 5883 5882 5881 5880 5879 5877 5875 5874 5873 5874 5875 5875 5875 5875 5875 5877 5877 5877 5876 5875 5874 5874 5874 5873 5871 5871 5870 5869 5869 5867 5866 5865 5863 5862
5787 5790 5794 5796 5794 5790 5790 5794 5800 5804 5808 5812 5815 5818 5822 5825 5829 5833 5835 5838 5841 5844 5846 5847 5848 5850 5852 5854 5856 5858 5860 5861 5863 5864 5865 5866 5868 5869 5871 5872 5874 5875 5875 5875 5876 5877 5877 5878 5878 5878 5878 5877 5876 5876 5875 5873 5871 5869 5867 5866 5868 5869 5869 5870 5871 5870 5870 5870 5870 5870 5869 5869 5869 5868 5867 5866 5865 5864 5863 5862 5862 5860 5859 5857 5856
5786 5787 5788 5789 5787 5784 5785 5790 5795 5798 5802 5805 5809 5813 5817 5820 5824 5828 5832 5834 5837 5839 5841 5842 5844 5846 5848 5850 5852 5854 5855 5857 5858 5859 5860 5861 5863 5864 5866 5868 5869 5870 5870 5870 5870 5871 5871 5872 5872 5871 5871 5871 5870 5869 5868 5867 5868 5866 5863 5860 5861 5863 5864 5865 5865 5865 5864 5864 5863 5863 5864 5864 5863 5861 5861 5860 5859 5858 5857 5856 5855 5854 5852 5851 5850
5781 5783 5784 5784 5783 5780 5780 5784 5789 5793 5797 5800 5804 5808 5812 5816 5820 5824 5828 5830 5832 5834 5837 5839 5841 5842 5844 5846 5847 5849 5850 5852 5853 5854 5855 5857 5859 5860 5862 5863 5863 5863 5863 5863 5864 5864 5864 5865 5865 5864 5864 5864 5863 5862 5861 5861 5862 5861 5857 5855 5857 5859 5860 5860 5860 5859 5858 5858 5857 5857 5858 5858 5857 5855 5854 5854 5853 5852 5851 5849 5848 5847 5846 5844 5843
5774 5775 5776 5778 5780 5780 5779 5779 5783 5788 5793 5796 5800 5804 5807 5811 5815 5819 5822 5825 5828 5830 5832 5834 5836 5837 5839 5840 5842 5844 5846 5847 5849 5850 5851 5853 5854 5855 5856 5856 5856 5855 5855 5856 5857 5857 5858 5858 5858 5857 5857 5856 5856 5855 5855 5855 5855 5853 5850 5850 5852 5853 5854 5854 5853 5852 5852 5851 5851 5850 5851 5851 5850 5849 5849 5848 5847 5846 5845 5843 5842 5840 5839 5838 5836
5767 5769 5771 5773 5776 5777 5776 5776 5778 5783 5787 5791 5795 5798 5802 5805 5809 5812 5816 5819 5822 5824 5826 5828 5830 5832 5833 5835 5837 5839 5841 5842 5844 5845 5846 5847 5848 5848 5848 5848 5846 5846 5846 5848 5850 5851 5852 5851 5851 5850 5850 5849 5849 5848 5848 5849 5849 5848 5846 5846 5846 5847 5848 5848 5847 5845 5846 5846 5845 5844 5844 5844 5843 5842 5842 5841 5840 5839 5838 5837 5835 5834 5833 5831 5830
5761 5764 5767 5771 5773 5773 5772 5771 5773 5778 5782 5786 5790 5794 5798 5801 5805 5808 5811 5814 5816 5818 5821 5822 5824 5826 5828 5829 5831 5833 5835 5836 5838 5838 5839 5840 5840 5840 5840 5839 5839 5840 5841 5843 5844 5845 5845 5844 5844 5843 5843 5842 5842 5842 5842 5842 5842 5842 5841 5841 5841 5842 5843 5842 5841 5840 5841 5841 5840 5839 5839 5838 5836 5835 5834 5834 5833 5832 5831 5830 5828 5827 5825 5824 5822
5757 5759 5761 5766 5769 5771 5769 5767 5767 5771 5777 5781 5786 5790 5794 5797 5800 5803 5806 5808 5811 5813 5816 5818 5819 5821 5822 5823 5825 5827 5829 5830 5831 5832 5832 5833 5832 5832 5832 5832 5834 5836 5837 5838 5839 5839 5839 5838 5837 5837 5836 5836 5836 5836 5837 5837 5837 5836 5836 5836 5836 5836 5836 5836 5835 5835 5835 5834 5834 5833 5833 5831 5830 5829 5827 5826 5825 5824 5823 5822 5820 5819 5818 5816 5814
5752 5754 5756 5760 5764 5767 5768 5767 5766 5768 5772 5777 5781 5785 5789 5792 5795 5798 5801 5803 5805 5807 5809 5812 5813 5815 5815 5816 5818 5820 5822 5823 5824 5825 5825 5824 5824 5825 5826 5828 5829 5831 5832 5832 5832 5832 5832 5831 5831 5831 5831 5831 5832 5832 5832 5831 5831 5831 5830 5830 5830 5829 5829 5829 5829 5828 5828 5828 5827 5826 5825 5824 5823 5822 5821 5819 5818 5816 5815 5813 5812 5811 5810 5808 5806
5747 5750 5752 5754 5758 5762 5765 5766 5767 5768 5770 5774 5777 5780 5783 5787 5790 5792 5795 5797 5799 5801 5803 5805 5807 5808 5809 5810 5811 5812 5814 5816 5817 5817 5817 5818 5819 5821 5823 5824 5824 5825 5825 5825 5825 5825 5825 5825 5825 5825 5825 5826 5827 5827 5826 5826 5825 5825 5824 5823 5823 5823 5823 5823 5822 5822 5821 5820 5819 5818 5817 5816 5815 5814 5813 5812 5810 5809 5807 5806 5805 5803 5802 5800 5799
5743 5745 5747 5750 5753 5757 5760 5763 5766 5768 5770 5772 5774 5776 5778 5781 5784 5786 5789 5791 5793 5794 5796 5799 5800 5802 5802 5803 5805 5806 5808 5810 5812 5812 5812 5813 5815 5816 5817 5817 5818 5818 5818 5819 5819 5819 5819 5818 5819 5818 5818 5819 5820 5820 5819 5819 5819 5818 5817 5816 5816 5816 5815 5815 5815 5814 5813 5812 5811 5810 5809 5808 5807 5806 5805 5804 5802 5801 5800 5799 5797 5795 5794 5792 5791
5738 5739 5742 5746 5750 5753 5755 5758 5761 5764 5767 5769 5770 5771 5773 5775 5777 5779 5782 5784 5786 5787 5789 5791 5793 5795 5795 5795 5797 5800 5802 5804 5806 5807 5807 5807 5808 5809 5809 5810 5811 5811 5811 5812 5812 5811 5811 5811 5811 5812 5812 5812 5813 5812 5812 5812 5812 5811 5811 5810 5809 5809 5808 5808 5807 5806 5805 5804 5803 5802 5801 5800 5799 5798 5797 5796 5795 5793 5792 5791 5789 5787 5786 5784 5783
5732 5735 5738 5742 5745 5747 5750 5754 5757 5760 5762 5764 5765 5766 5768 5770 5771 5773 5775 5777 5779 5781 5783 5784 5786 5787 5788 5788 5790 5793 5794 5796 5798 5800 5801 5801 5802 5802 5802 5803 5804 5804 5805 5805 5804 5804 5804 5804 5805 5805 5805 5805 5805 5805 5805 5805 5804 5804 5803 5803 5802 5801 5801 5800 5799 5798 5797 5796 5795 5794 5793 5792 5791 5790 5789 5788 5786 5785 5784 5782 5781 5779 5778 5776 5774
5728 5730 5733 5736 5739 5741 5745 5749 5752 5754 5755 5756 5758 5760 5762 5764 5765 5767 5769 5771 5772 5773 5775 5777 5779 5780 5781 5782 5784 5786 5788 5789 5791 5793 5794 5795 5795 5795 5796 5797 5797 5798 5798 5798 5798 5799 5799 5798 5798 5798 5798 5798 5798 5798 5797 5797 5797 5796 5795 5795 5794 5793 5792 5791 5791 5790 5789 5788 5787 5785 5784 5783 5782 5782 5781 5779 5778 5776 5775 5773 5772 5771 5769 5767 5765
5723 5724 5727 5730 5733 5735 5739 5743 5745 5747 5749 5750 5752 5754 5756 5758 5759 5761 5763 5765 5766 5767 5768 5770 5771 5773 5774 5775 5777 5779 5781 5783 5784 5786 5788 5788 5789 5789 5790 5790 5791 5791 5792 5792 5792 5792 5792 5791 5791 5792 5791 5791 5791 5790 5790 5789 5788 5787 5787 5786 5785 5785 5784 5783 5782 5781 5780 5779 5778 5776 5775 5774 5773 5772 5771 5770 5768 5767 5766 5765 5763 5761 5759 5757 5756